Location: Pasarilla del Rebollar
(40.6790°N, 5.0062°W)
Time: 11:50:06
(UTC+00:00)

EP 1 - Pass Details

Date: 22 April 2026
Orbit: 314 x 1668 km, 63.3° (Epoch: 25 August)

Event Time Altitude Azimuth Distance (km) Brightness Sun altitude
Rises 04:21:55 0° 321° (NW) 2,060 8.2 -12.9°
Reaches altitude 10° 04:23:45 10° 317° (NW) 1,254 7.0 -12.6°
Maximum altitude 04:26:23 56° 237° (WSW) 430 4.4 -12.2°
Drops below altitude 10° 04:29:28 10° 158° (SSE) 1,475 7.5 -11.7°
Sets 04:31:47 0° 154° (SSE) 2,487 8.7 -11.3°
